Fort Patrick Henry Reservoir Weather Center

Moon Phase Calendar



Fort Patrick Henry Reservoir Water Level
Online Cameras

 


      

Current Conditions in Colonial Heights
12/1/2020 9:55:49 PM

29°F
Feels Like 17
Clouds
Humidity
74%
Pressure
30.15"
Wind
12.8 mph (W)
Dew Point
23°F
UV Index
0/10 (Low)
Visibility
6 mi

Hourly Forecast

Date & Time Tue, Dec 1
9:00 PM
Tue, Dec 1
10:00 PM
Tue, Dec 1
11:00 PM
Wed, Dec 2
12:00 AM
Wed, Dec 2
1:00 AM
Wed, Dec 2
2:00 AM
Wed, Dec 2
3:00 AM
Wed, Dec 2
4:00 AM
Wed, Dec 2
5:00 AM
Wed, Dec 2
6:00 AM
Wed, Dec 2
7:00 AM
Wed, Dec 2
8:00 AM
Wed, Dec 2
9:00 AM
Wed, Dec 2
10:00 AM
Wed, Dec 2
11:00 AM
Wed, Dec 2
12:00 PM
Wed, Dec 2
1:00 PM
Wed, Dec 2
2:00 PM
Wed, Dec 2
3:00 PM
Wed, Dec 2
4:00 PM
Wed, Dec 2
5:00 PM
Wed, Dec 2
6:00 PM
Wed, Dec 2
7:00 PM
Wed, Dec 2
8:00 PM
Wed, Dec 2
9:00 PM
Wed, Dec 2
10:00 PM
Wed, Dec 2
11:00 PM
Thu, Dec 3
12:00 AM
Thu, Dec 3
1:00 AM
Thu, Dec 3
2:00 AM
Thu, Dec 3
3:00 AM
Thu, Dec 3
4:00 AM
Thu, Dec 3
5:00 AM
Thu, Dec 3
6:00 AM
Thu, Dec 3
7:00 AM
Thu, Dec 3
8:00 AM
Thu, Dec 3
9:00 AM
Thu, Dec 3
10:00 AM
Thu, Dec 3
11:00 AM
Thu, Dec 3
12:00 PM
Thu, Dec 3
1:00 PM
Thu, Dec 3
2:00 PM
Thu, Dec 3
3:00 PM
Thu, Dec 3
4:00 PM
Thu, Dec 3
5:00 PM
Thu, Dec 3
6:00 PM
Thu, Dec 3
7:00 PM
Thu, Dec 3
8:00 PM
Condition
Clouds

Clouds

Clouds

Clouds

Clouds

Clouds

Clouds

Clouds

Clouds

Clouds

Clouds

Clear

Clear

Clear

Clear

Clear

Clear

Clouds

Clouds

Clouds

Clouds

Clouds

Clouds

Clear

Clear

Clear

Clear

Clear

Clear

Clear

Clear

Clouds

Clouds

Clouds

Clouds

Clouds

Clouds

Clouds

Clouds

Clouds

Clouds

Clouds

Clouds

Clouds

Clouds

Clouds

Clouds

Clouds
Temperature 29°F27°F26°F24°F24°F23°F23°F22°F22°F22°F21°F22°F26°F30°F33°F36°F38°F40°F39°F37°F32°F28°F27°F27°F27°F27°F26°F26°F26°F26°F26°F26°F27°F27°F27°F29°F33°F39°F42°F45°F47°F48°F48°F45°F38°F36°F36°F35°F
Feels Like 19°F18°F17°F15°F14°F14°F14°F14°F13°F13°F14°F15°F18°F22°F26°F29°F32°F34°F33°F30°F26°F22°F22°F21°F21°F21°F20°F20°F20°F19°F20°F20°F20°F21°F21°F24°F29°F34°F37°F40°F42°F42°F42°F40°F33°F31°F31°F30°F
Cloudiness 90%89%86%73%63%13%15%13%11%12%11%3%5%3%2%2%4%80%87%91%94%75%63%0%0%0%0%0%0%0%0%14%33%45%54%100%93%75%81%80%79%77%40%31%27%32%42%100%
Visibility 6 mi6 mi6 mi6 mi6 mi6 mi6 mi6 mi6 mi6 mi6 mi6 mi6 mi6 mi6 mi6 mi6 mi6 mi6 mi6 mi6 mi6 mi6 mi6 mi6 mi6 mi6 mi6 mi6 mi6 mi6 mi6 mi6 mi6 mi6 mi6 mi6 mi6 mi6 mi6 mi6 mi6 mi6 mi6 mi6 mi6 mi6 mi6 mi
Precipitation 5%5%14%13%9%5%5%5%0%0%0%0%0%0%0%0%0%0%0%0%0%0%0%0%0%0%0%0%0%0%0%0%0%0%0%0%0%0%0%0%0%0%0%0%0%0%0%0%
Humidity 74%85%93%96%97%97%97%97%97%97%97%96%93%90%84%76%69%65%68%77%94%95%94%94%94%94%94%93%93%93%92%91%90%89%89%88%82%68%61%55%51%51%52%59%77%83%82%85%
Dew Point 23°F24°F24°F24°F23°F21°F20°F20°F20°F19°F19°F19°F20°F21°F21°F21°F22°F22°F24°F26°F26°F24°F22°F22°F22°F21°F21°F20°F20°F20°F19°F18°F18°F17°F17°F18°F19°F22°F23°F24°F26°F27°F29°F32°F29°F29°F29°F28°F
Pressure 30.15"30.18"30.21"30.27"30.27"30.27"30.3"30.3"30.33"30.36"30.36"30.39"30.39"30.42"30.42"30.39"30.36"30.36"30.36"30.36"30.39"30.39"30.42"30.42"30.42"30.42"30.42"30.42"30.42"30.39"30.39"30.36"30.36"30.36"30.36"30.36"30.36"30.36"30.33"30.3"30.27"30.27"30.24"30.24"30.24"30.27"30.27"30.27"
Wind Speed 8.6 mph7.2 mph6.5 mph7.7 mph8.8 mph8.3 mph7.1 mph6.5 mph7.3 mph6.2 mph4.2 mph4.6 mph6.1 mph6.1 mph5.1 mph4.8 mph4.9 mph3.4 mph5.3 mph5.8 mph3.8 mph1.8 mph2 mph2.2 mph3 mph2.9 mph2.9 mph3.8 mph3.4 mph4.2 mph3.3 mph1.9 mph2.8 mph2 mph2 mph0.9 mph1.1 mph1.2 mph1.7 mph2.9 mph3.1 mph3.4 mph3.2 mph2.8 mph2 mph2.1 mph2.8 mph2.8 mph
Wind
Direction
266°
W
259°
W
249°
WSW
241°
WSW
244°
WSW
239°
WSW
235°
SW
229°
SW
232°
SW
232°
SW
215°
SW
226°
SW
233°
SW
233°
SW
234°
SW
240°
WSW
246°
WSW
230°
SW
209°
SSW
189°
S
173°
S
161°
SSE
107°
ESE
92°
E
81°
E
80°
E
88°
E
77°
ENE
59°
ENE
76°
ENE
70°
ENE
54°
NE
74°
ENE
91°
E
80°
E
319°
NW
138°
SE
198°
SSW
287°
WNW
212°
SSW
222°
SW
221°
SW
224°
SW
226°
SW
160°
SSE
87°
E
66°
ENE
75°
ENE

Daily Forecast

Date High Low Precip. Humidity
Today
Dec 1

Snow
33 °F
26 °F
99%
92%
Wednesday
Dec 2

Clear
40 °F
21 °F
13%
76%
Thursday
Dec 3

Clouds
47 °F
26 °F
0%
55%
Friday
Dec 4

Rain
51 °F
33 °F
44%
67%
Saturday
Dec 5

Snow
50 °F
34 °F
100%
77%
Sunday
Dec 6

Snow
37 °F
31 °F
100%
82%
Monday
Dec 7

Snow
38 °F
30 °F
31%
75%
Tuesday
Dec 8

Snow
37 °F
28 °F
47%
80%
Wednesday
Dec 9

Clear
45 °F
26 °F
0%
56%
Thursday
Dec 10

Clouds
46 °F
28 °F
0%
58%
Friday
Dec 11

Clear
52 °F
29 °F
0%
43%
Saturday
Dec 12

Clouds
54 °F
33 °F
0%
59%
Sunday
Dec 13

Rain
63 °F
42 °F
37%
67%
Monday
Dec 14

Rain
63 °F
26 °F
100%
70%
Tuesday
Dec 15

Clouds
29 °F
18 °F
9%
76%
Wednesday
Dec 16

Clear
28 °F
11 °F
13%
63%


Temperature 8-14 Day Outlook



Precipitation 8-14 Day Outlook




Quick Links
Fort Patrick Henry Reservoir News
Fort Patrick Henry Reservoir Photos
Fort Patrick Henry Reservoir Videos




About Us
Contact Us
Site Map
Search Site
Advertise With Us
   
FortPatrickHenry.LakesOnline.com
THE FORT PATRICK HENRY RESERVOIR WEBSITE

Copyright 2020, Lakes Online
Privacy    |    Legal